Погода в Ивняках

Россия / Ярославская область     57°36′58″N   39°47′34″E
темп.,
°C
ветер,
м/с
пор.,
м/с
влажн.,
%
обл.,
%
осадки,
мм/ч
давл.,
гПа
погр.,
м
16 мая, вс
вс1600:00+13ю411930 0.0 1009231
03:00+11ю39951 0.0 1009179
06:00+13ююз511943 0.0 1010366
09:00+17юз7127635 0.0 1011926
12:00+19юз696869 0.4 10111584
15:00+20юз59643 1.3 10121434
18:00+19юз49721 0.5 1011753
21:00+14юз48905 0.8 1013142
17 мая, пн
пн1700:00+13юз35940 0.0 101477
03:00+12зюз22945 0.0 101530
06:00+13ююз2290100 0.0 101677
09:00+18юв117579 0.0 1017370
12:00+21ююв235858 0.0 10171157
15:00+23вюв345318 0.0 10161375
18:00+22в477026 0.0 1015366
21:00+17в41288100 0.4 1015211
18 мая, вт
вт1800:00+16вюв4109128 0.7 1014208
03:00+14вюв369395 0.7 1014105
06:00+16вюв3990100 0.0 1013208
09:00+22юв512665 0.0 1013458
12:00+26юв6125170 0.0 10131831
15:00+26юв610488 0.0 10121368
18:00+24юв511614 0.0 1011375
21:00+19юв515694 0.0 1012313
19 мая, ср
ср1900:00+17юв414805 0.0 1011258
03:00+15юв412855 0.0 1011206
06:00+17юв516735 0.0 1011364
09:00+22ююв612635 0.0 1011579
12:00+26юв6135112 0.0 10101394
15:00+27вюв7134855 0.0 10101711
18:00+24вюв714575 0.0 1009517
21:00+21вюв6166938 0.0 1008467
20 мая, чт
чт2000:00+16ссв3394100 0.5 100963
03:00+15в3595100 1.8 1008122
06:00+16юв4129057 0.1 1008490
09:00+19ююв698155 0.1 1007814
12:00+19ююв6108154 0.7 10071104
15:00+20ю7117399 2.3 10081353
18:00+18ю61179100 0.6 10081044
21:00+15ю5128111 0.6 1009511